| time (UTC) | temp C | wind direction | speed KPH | gust KPH | rain 1hr cm | rain 24hr cm | rain mn cm | humidity % | barometer mb |
| 20260506140503 | 17 | 282 | 1.6 | 6.4 | 0.00 | 0.05 | 0.05 | 77 | 1010.9 |
| 20260506140005 | 17 | 277 | 1.6 | 4.8 | 0.00 | 0.05 | 0.05 | 78 | 1010.8 |
| 20260506135712 | 17 | 274 | 1.6 | 4.8 | 0.00 | 0.05 | 0.05 | 80 | 1011.0 |
| 20260506135210 | 17 | 273 | 1.6 | 4.8 | 0.00 | 0.05 | 0.05 | 81 | 1010.8 |
| 20260506134503 | 17 | 273 | 1.6 | 4.8 | 0.00 | 0.05 | 0.05 | 80 | 1010.9 |
| 20260506134211 | 17 | 271 | 1.6 | 4.8 | 0.00 | 0.05 | 0.05 | 80 | 1010.9 |
| 20260506133505 | 17 | 266 | 1.6 | 4.8 | 0.00 | 0.05 | 0.05 | 80 | 1011.0 |
| 20260506133210 | 17 | 269 | 1.6 | 4.8 | 0.00 | 0.05 | 0.05 | 80 | 1011.1 |
| 20260506132505 | 17 | 282 | 1.6 | 4.8 | 0.00 | 0.05 | 0.05 | 80 | 1011.1 |
| 20260506132003 | 17 | 284 | 0.0 | 3.2 | 0.00 | 0.05 | 0.05 | 80 | 1011.2 |
| 20260506131503 | 17 | 284 | 0.0 | 3.2 | 0.00 | 0.05 | 0.05 | 79 | 1011.3 |
| 20260506131212 | 17 | 284 | 0.0 | 1.6 | 0.00 | 0.05 | 0.05 | 78 | 1011.3 |
| 20260506130503 | 17 | 281 | 0.0 | 3.2 | 0.00 | 0.05 | 0.05 | 77 | 1011.4 |
| 20260506130005 | 17 | 280 | 0.0 | 3.2 | 0.00 | 0.05 | 0.05 | 77 | 1011.4 |
| 20260506125505 | 17 | 274 | 0.0 | 1.6 | 0.00 | 0.05 | 0.05 | 77 | 1011.5 |
| 20260506125003 | 17 | 274 | 0.0 | 1.6 | 0.00 | 0.05 | 0.05 | 79 | 1011.6 |
| 20260506124505 | 17 | 274 | 1.6 | 3.2 | 0.00 | 0.05 | 0.05 | 80 | 1011.5 |
| 20260506124003 | 17 | 274 | 1.6 | 4.8 | 0.00 | 0.05 | 0.05 | 78 | 1011.7 |
| 20260506123503 | 17 | 274 | 1.6 | 4.8 | 0.00 | 0.05 | 0.05 | 79 | 1011.8 |
| 20260506123005 | 17 | 274 | 1.6 | 4.8 | 0.00 | 0.05 | 0.05 | 78 | 1011.7 |
| 20260506122503 | 17 | 264 | 1.6 | 4.8 | 0.00 | 0.05 | 0.05 | 77 | 1011.7 |
| 20260506122003 | 16 | 248 | 1.6 | 6.4 | 0.00 | 0.05 | 0.05 | 77 | 1011.8 |
| 20260506121505 | 16 | 199 | 1.6 | 6.4 | 0.00 | 0.05 | 0.05 | 79 | 1011.7 |
| 20260506121003 | 16 | 203 | 1.6 | 4.8 | 0.00 | 0.05 | 0.05 | 80 | 1011.8 |
| 20260506120503 | 16 | 284 | 1.6 | 4.8 | 0.00 | 0.05 | 0.05 | 81 | 1011.8 |
| 20260506120005 | 16 | 275 | 1.6 | 4.8 | 0.00 | 0.05 | 0.05 | 80 | 1011.8 |
| 20260506115712 | 16 | 270 | 3.2 | 4.8 | 0.00 | 0.05 | 0.05 | 80 | 1011.8 |
| 20260506115210 | 16 | 269 | 3.2 | 6.4 | 0.00 | 0.05 | 0.05 | 79 | 1011.9 |
| 20260506114505 | 16 | 258 | 3.2 | 9.7 | 0.00 | 0.05 | 0.05 | 80 | 1012.1 |
| 20260506114003 | 16 | 258 | 3.2 | 6.4 | 0.00 | 0.05 | 0.05 | 80 | 1012.1 |
| 20260506113505 | 16 | 270 | 1.6 | 6.4 | 0.00 | 0.05 | 0.05 | 80 | 1012.0 |
| 20260506113003 | 16 | 282 | 1.6 | 6.4 | 0.00 | 0.05 | 0.05 | 81 | 1012.2 |
| 20260506112503 | 16 | 335 | 1.6 | 4.8 | 0.05 | 0.05 | 0.05 | 82 | 1012.3 |
| 20260506112005 | 16 | 309 | 1.6 | 4.8 | 0.05 | 0.05 | 0.05 | 82 | 1012.3 |
| 20260506111503 | 16 | 259 | 3.2 | 4.8 | 0.05 | 0.05 | 0.05 | 83 | 1012.3 |
| 20260506111211 | 16 | 257 | 3.2 | 4.8 | 0.05 | 0.05 | 0.05 | 81 | 1012.4 |
| 20260506110710 | 16 | 267 | 4.8 | 4.8 | 0.05 | 0.05 | 0.05 | 82 | 1012.4 |
| 20260506110211 | 16 | 269 | 4.8 | 11.3 | 0.05 | 0.05 | 0.05 | 80 | 1012.3 |
| 20260506105505 | 16 | 274 | 4.8 | 12.9 | 0.05 | 0.05 | 0.05 | 79 | 1012.5 |
| 20260506105004 | 16 | 278 | 3.2 | 12.9 | 0.05 | 0.05 | 0.05 | 79 | 1012.6 |
| 20260506104712 | 17 | 285 | 3.2 | 11.3 | 0.05 | 0.05 | 0.05 | 79 | 1012.6 |
| 20260506104210 | 17 | 308 | 3.2 | 6.4 | 0.05 | 0.05 | 0.05 | 80 | 1012.6 |
| 20260506103712 | 17 | 297 | 3.2 | 6.4 | 0.05 | 0.05 | 0.05 | 79 | 1012.5 |
| 20260506103003 | 17 | 295 | 3.2 | 6.4 | 0.05 | 0.05 | 0.05 | 78 | 1012.7 |
| 20260506102505 | 17 | 289 | 3.2 | 8.0 | 0.03 | 0.03 | 0.05 | 77 | 1012.7 |
| 20260506102003 | 17 | 262 | 3.2 | 8.0 | 0.00 | 0.00 | 0.00 | 76 | 1012.8 |
| 20260506101503 | 17 | 261 | 4.8 | 11.3 | 0.00 | 0.00 | 0.00 | 75 | 1012.9 |
| 20260506101005 | 17 | 273 | 6.4 | 12.9 | 0.00 | 0.00 | 0.00 | 74 | 1012.7 |
| 20260506100503 | 17 | 268 | 8.0 | 14.5 | 0.00 | 0.00 | 0.00 | 73 | 1012.7 |
| 20260506100005 | 17 | 271 | 8.0 | 20.9 | 0.00 | 0.00 | 0.00 | 72 | 1012.6 |
| 20260506095503 | 17 | 272 | 8.0 | 20.9 | 0.00 | 0.00 | 0.00 | 71 | 1012.5 |
| 20260506095212 | 18 | 266 | 8.0 | 20.9 | 0.00 | 0.00 | 0.00 | 71 | 1012.6 |
| 20260506094503 | 18 | 253 | 6.4 | 16.1 | 0.00 | 0.00 | 0.00 | 71 | 1012.7 |
| 20260506094005 | 18 | 249 | 4.8 | 16.1 | 0.00 | 0.00 | 0.00 | 71 | 1012.6 |
| 20260506093503 | 18 | 238 | 4.8 | 14.5 | 0.00 | 0.00 | 0.00 | 71 | 1012.6 |
| 20260506093003 | 18 | 249 | 4.8 | 14.5 | 0.00 | 0.00 | 0.00 | 71 | 1012.7 |
| 20260506092505 | 18 | 257 | 6.4 | 14.5 | 0.00 | 0.00 | 0.00 | 71 | 1012.5 |
| 20260506092003 | 18 | 270 | 4.8 | 14.5 | 0.00 | 0.00 | 0.00 | 71 | 1012.4 |
| 20260506091710 | 18 | 276 | 4.8 | 14.5 | 0.00 | 0.00 | 0.00 | 71 | 1012.5 |
| 20260506091212 | 18 | 266 | 4.8 | 14.5 | 0.00 | 0.00 | 0.00 | 71 | 1012.5 |
| 20260506090503 | 19 | 225 | 3.2 | 9.7 | 0.00 | 0.00 | 0.00 | 73 | 1012.2 |
| 20260506090006 | 19 | 227 | 3.2 | 11.3 | 0.00 | 0.00 | 0.00 | 72 | 1012.1 |
| 20260506085503 | 19 | 213 | 4.8 | 11.3 | 0.00 | 0.00 | 0.00 | 73 | 1012.0 |
| 20260506085005 | 19 | 227 | 4.8 | 12.9 | 0.00 | 0.00 | 0.00 | 72 | 1012.0 |
| 20260506084503 | 18 | 230 | 3.2 | 16.1 | 0.00 | 0.00 | 0.00 | 73 | 1012.0 |
| 20260506084005 | 18 | 246 | 3.2 | 16.1 | 0.00 | 0.00 | 0.00 | 72 | 1011.9 |
| 20260506083503 | 18 | 272 | 4.8 | 9.7 | 0.00 | 0.00 | 0.00 | 71 | 1011.8 |
| 20260506083005 | 18 | 248 | 4.8 | 9.7 | 0.00 | 0.00 | 0.00 | 72 | 1011.8 |
| 20260506082710 | 18 | 235 | 4.8 | 9.7 | 0.00 | 0.00 | 0.00 | 71 | 1011.6 |
| 20260506082003 | 18 | 290 | 4.8 | 16.1 | 0.00 | 0.00 | 0.00 | 74 | 1011.6 |
| 20260506081712 | 18 | 324 | 4.8 | 16.1 | 0.00 | 0.00 | 0.00 | 72 | 1011.6 |
| 20260506081003 | 18 | 269 | 6.4 | 9.7 | 0.00 | 0.00 | 0.00 | 73 | 1011.6 |
| 20260506080505 | 18 | 274 | 6.4 | 14.5 | 0.00 | 0.00 | 0.00 | 74 | 1011.8 |
| 20260506073505 | 17 | 210 | 3.2 | 9.7 | 0.00 | 0.00 | 0.00 | 77 | 1012.0 |
| 20260506073003 | 17 | 33 | 3.2 | 8.0 | 0.00 | 0.00 | 0.00 | 77 | 1012.1 |
| 20260506072503 | 16 | 27 | 3.2 | 8.0 | 0.00 | 0.00 | 0.00 | 76 | 1012.1 |
| 20260506072005 | 16 | 36 | 3.2 | 6.4 | 0.00 | 0.00 | 0.00 | 77 | 1012.0 |
| 20260506071503 | 16 | 40 | 3.2 | 8.0 | 0.00 | 0.00 | 0.00 | 77 | 1012.3 |
| 20260506071005 | 16 | 38 | 3.2 | 8.0 | 0.00 | 0.00 | 0.00 | 77 | 1012.3 |
| 20260506070710 | 16 | 38 | 1.6 | 8.0 | 0.00 | 0.00 | 0.00 | 78 | 1012.3 |
| 20260506062503 | 13 | 42 | 0.0 | 1.6 | 0.00 | 0.00 | 0.00 | 84 | 1012.5 |
| 20260506062003 | 13 | 0 | 0.0 | 0.0 | 0.00 | 0.00 | 0.00 | 85 | 1012.4 |
| 20260506061712 | 13 | 0 | 0.0 | 0.0 | 0.00 | 0.00 | 0.00 | 85 | 1012.4 |
| 20260506061212 | 13 | 0 | 0.0 | 0.0 | 0.00 | 0.00 | 0.00 | 85 | 1012.4 |
| 20260506060503 | 13 | 42 | 0.0 | 1.6 | 0.00 | 0.00 | 0.00 | 85 | 1012.4 |
| 20260506060215 | 13 | 42 | 0.0 | 1.6 | 0.00 | 0.00 | 0.00 | 85 | 1012.4 |
| 20260506051005 | 12 | 317 | 1.6 | 3.2 | 0.00 | 0.00 | 0.00 | 87 | 1012.3 |
| 20260506050710 | 12 | 313 | 1.6 | 3.2 | 0.00 | 0.00 | 0.00 | 87 | 1012.3 |
| 20260506045003 | 12 | 305 | 0.0 | 1.6 | 0.00 | 0.00 | 0.00 | 87 | 1012.2 |
| 20260506044505 | 12 | 0 | 0.0 | 0.0 | 0.00 | 0.00 | 0.00 | 87 | 1012.1 |
| 20260506044003 | 12 | 0 | 0.0 | 0.0 | 0.00 | 0.00 | 0.00 | 88 | 1012.1 |
| 20260506043503 | 12 | 307 | 0.0 | 1.6 | 0.00 | 0.00 | 0.00 | 88 | 1012.2 |
| 20260506043005 | 12 | 307 | 0.0 | 1.6 | 0.00 | 0.00 | 0.00 | 88 | 1012.3 |
| 20260506042503 | 12 | 0 | 0.0 | 0.0 | 0.00 | 0.00 | 0.00 | 88 | 1012.2 |
| 20260506042212 | 11 | 0 | 0.0 | 0.0 | 0.00 | 0.00 | 0.00 | 88 | 1012.2 |
| 20260506041503 | 11 | 307 | 0.0 | 1.6 | 0.00 | 0.00 | 0.00 | 88 | 1012.2 |
| 20260506041005 | 11 | 307 | 0.0 | 1.6 | 0.00 | 0.00 | 0.00 | 88 | 1012.2 |
| 20260506040504 | 11 | 0 | 0.0 | 0.0 | 0.00 | 0.00 | 0.00 | 87 | 1012.2 |
| 20260506040006 | 11 | 0 | 0.0 | 0.0 | 0.00 | 0.00 | 0.00 | 87 | 1012.2 |
| 20260506035503 | 11 | 0 | 0.0 | 0.0 | 0.00 | 0.00 | 0.00 | 87 | 1012.1 |
| 20260506035005 | 11 | 308 | 0.0 | 3.2 | 0.00 | 0.00 | 0.00 | 88 | 1012.2 |
| 20260506034503 | 11 | 308 | 0.0 | 3.2 | 0.00 | 0.00 | 0.00 | 87 | 1012.2 |
| 20260506034003 | 11 | 308 | 0.0 | 1.6 | 0.00 | 0.00 | 0.00 | 88 | 1012.1 |
| 20260506033505 | 11 | 308 | 0.0 | 1.6 | 0.00 | 0.00 | 0.00 | 87 | 1012.1 |
| 20260506033004 | 11 | 0 | 0.0 | 0.0 | 0.00 | 0.00 | 0.00 | 87 | 1012.2 |
| 20260506032505 | 11 | 308 | 0.0 | 1.6 | 0.00 | 0.00 | 0.00 | 87 | 1012.2 |
| 20260506032003 | 11 | 308 | 0.0 | 3.2 | 0.00 | 0.00 | 0.00 | 87 | 1012.3 |
| 20260506031712 | 11 | 308 | 0.0 | 3.2 | 0.00 | 0.00 | 0.00 | 88 | 1012.3 |
| 20260506031003 | 11 | 308 | 0.0 | 1.6 | 0.00 | 0.00 | 0.00 | 87 | 1012.4 |
| 20260506030503 | 11 | 308 | 0.0 | 1.6 | 0.00 | 0.00 | 0.00 | 87 | 1012.4 |
| 20260506030006 | 11 | 308 | 0.0 | 1.6 | 0.00 | 0.00 | 0.00 | 87 | 1012.4 |
| 20260506025503 | 11 | 308 | 0.0 | 1.6 | 0.00 | 0.00 | 0.00 | 86 | 1012.5 |
| 20260506025004 | 11 | 307 | 0.0 | 1.6 | 0.00 | 0.00 | 0.00 | 87 | 1012.4 |
| 20260506024505 | 11 | 307 | 0.0 | 1.6 | 0.00 | 0.00 | 0.00 | 86 | 1012.3 |
| 20260506024211 | 11 | 307 | 1.6 | 3.2 | 0.00 | 0.00 | 0.00 | 87 | 1012.4 |
| 20260506023503 | 11 | 307 | 0.0 | 3.2 | 0.00 | 0.00 | 0.00 | 87 | 1012.4 |
| 20260506023005 | 11 | 307 | 0.0 | 3.2 | 0.00 | 0.00 | 0.00 | 86 | 1012.6 |
| 20260506022710 | 11 | 307 | 0.0 | 3.2 | 0.00 | 0.00 | 0.00 | 86 | 1012.6 |
| 20260506022005 | 11 | 308 | 0.0 | 1.6 | 0.00 | 0.00 | 0.00 | 86 | 1012.5 |
| 20260506021503 | 11 | 308 | 0.0 | 1.6 | 0.00 | 0.00 | 0.00 | 86 | 1012.6 |
| 20260506021003 | 11 | 308 | 0.0 | 1.6 | 0.00 | 0.00 | 0.00 | 86 | 1012.5 |
| 20260506020505 | 11 | 308 | 0.0 | 1.6 | 0.00 | 0.00 | 0.00 | 86 | 1012.4 |
| 20260506020004 | 11 | 308 | 0.0 | 1.6 | 0.00 | 0.00 | 0.00 | 86 | 1012.4 |
| 20260506015505 | 11 | 308 | 0.0 | 1.6 | 0.00 | 0.00 | 0.00 | 86 | 1012.5 |
| 20260506015003 | 11 | 308 | 1.6 | 1.6 | 0.00 | 0.00 | 0.00 | 86 | 1012.4 |
| 20260506014503 | 11 | 308 | 1.6 | 3.2 | 0.00 | 0.00 | 0.00 | 86 | 1012.4 |
| 20260506014005 | 11 | 307 | 1.6 | 3.2 | 0.00 | 0.00 | 0.00 | 86 | 1012.2 |
| 20260506013503 | 11 | 306 | 1.6 | 3.2 | 0.00 | 0.00 | 0.00 | 86 | 1012.4 |
| 20260506013005 | 11 | 306 | 0.0 | 3.2 | 0.00 | 0.00 | 0.00 | 86 | 1012.3 |
| 20260506012505 | 11 | 306 | 0.0 | 1.6 | 0.00 | 0.00 | 0.00 | 85 | 1012.3 |
| 20260506012003 | 11 | 306 | 0.0 | 1.6 | 0.00 | 0.00 | 0.00 | 87 | 1012.3 |
| 20260506011505 | 11 | 306 | 0.0 | 3.2 | 0.00 | 0.00 | 0.00 | 86 | 1012.4 |
| 20260506011003 | 11 | 306 | 0.0 | 3.2 | 0.00 | 0.00 | 0.00 | 86 | 1012.4 |
| 20260506010506 | 11 | 0 | 0.0 | 0.0 | 0.00 | 0.00 | 0.00 | 87 | 1012.4 |
| 20260506010004 | 11 | 0 | 0.0 | 0.0 | 0.00 | 0.00 | 0.00 | 85 | 1012.4 |
| 20260506005505 | 11 | 0 | 0.0 | 0.0 | 0.00 | 0.00 | 0.00 | 86 | 1012.4 |
| 20260506005003 | 11 | 0 | 0.0 | 0.0 | 0.00 | 0.00 | 0.00 | 87 | 1012.5 |
| 20260506004711 | 11 | 306 | 1.6 | 3.2 | 0.00 | 0.00 | 0.00 | 87 | 1012.4 |
| 20260506004005 | 11 | 305 | 0.0 | 3.2 | 0.00 | 0.00 | 0.00 | 86 | 1012.4 |
| 20260506003710 | 11 | 305 | 0.0 | 3.2 | 0.00 | 0.00 | 0.00 | 87 | 1012.4 |
| 20260506003003 | 10 | 0 | 0.0 | 0.0 | 0.00 | 0.00 | 0.00 | 85 | 1012.4 |
| 20260506002505 | 11 | 0 | 0.0 | 0.0 | 0.00 | 0.00 | 0.00 | 85 | 1012.3 |
| 20260506002003 | 10 | 0 | 0.0 | 0.0 | 0.00 | 0.00 | 0.00 | 85 | 1012.3 |
| 20260506001505 | 10 | 0 | 0.0 | 0.0 | 0.00 | 0.00 | 0.00 | 84 | 1012.4 |
| 20260506001003 | 10 | 304 | 0.0 | 3.2 | 0.00 | 0.00 | 0.00 | 84 | 1012.4 |
| 20260506000503 | 10 | 304 | 0.0 | 3.2 | 0.00 | 0.00 | 0.00 | 86 | 1012.4 |
| 20260506000006 | 10 | 304 | 0.0 | 1.6 | 0.00 | 0.00 | 0.00 | 84 | 1012.5 |
| 20260505235503 | 11 | 304 | 0.0 | 1.6 | 0.00 | 0.00 | 0.00 | 83 | 1012.5 |
| 20260505235003 | 11 | 304 | 0.0 | 1.6 | 0.00 | 0.00 | 0.00 | 83 | 1012.5 |
| 20260505234505 | 11 | 304 | 1.6 | 3.2 | 0.00 | 0.00 | 0.00 | 82 | 1012.6 |
| 20260505234003 | 11 | 304 | 0.0 | 4.8 | 0.00 | 0.00 | 0.00 | 83 | 1012.6 |
| 20260505233505 | 11 | 304 | 0.0 | 4.8 | 0.00 | 0.00 | 0.00 | 82 | 1012.8 |
| 20260505233003 | 11 | 304 | 0.0 | 3.2 | 0.00 | 0.00 | 0.00 | 82 | 1012.6 |
| 20260505232505 | 11 | 304 | 0.0 | 3.2 | 0.00 | 0.00 | 0.00 | 81 | 1012.7 |
| 20260505232211 | 11 | 304 | 0.0 | 3.2 | 0.00 | 0.00 | 0.00 | 81 | 1012.8 |
| 20260505231505 | 11 | 304 | 1.6 | 3.2 | 0.00 | 0.00 | 0.00 | 81 | 1012.8 |
| 20260505231003 | 12 | 293 | 1.6 | 4.8 | 0.00 | 0.00 | 0.00 | 80 | 1012.8 |
| 20260505230503 | 12 | 275 | 0.0 | 4.8 | 0.00 | 0.00 | 0.00 | 80 | 1012.7 |
| 20260505230213 | 12 | 261 | 0.0 | 4.8 | 0.00 | 0.00 | 0.00 | 80 | 1012.8 |
| 20260505225504 | 12 | 276 | 1.6 | 4.8 | 0.00 | 0.00 | 0.00 | 79 | 1012.8 |
| 20260505225003 | 12 | 280 | 1.6 | 4.8 | 0.00 | 0.00 | 0.00 | 78 | 1012.8 |
| 20260505224505 | 12 | 265 | 0.0 | 4.8 | 0.00 | 0.00 | 0.00 | 79 | 1012.8 |
| 20260505224003 | 13 | 196 | 0.0 | 3.2 | 0.00 | 0.00 | 0.00 | 77 | 1012.8 |
| 20260505223505 | 13 | 200 | 0.0 | 4.8 | 0.00 | 0.00 | 0.00 | 77 | 1012.7 |
| 20260505223003 | 13 | 212 | 0.0 | 4.8 | 0.00 | 0.00 | 0.00 | 77 | 1012.9 |
| 20260505222505 | 13 | 5 | 1.6 | 3.2 | 0.00 | 0.00 | 0.00 | 77 | 1012.8 |
| 20260505222003 | 13 | 354 | 1.6 | 3.2 | 0.00 | 0.00 | 0.00 | 77 | 1012.8 |
| 20260505221505 | 13 | 288 | 1.6 | 3.2 | 0.00 | 0.00 | 0.00 | 77 | 1012.8 |
| 20260505221003 | 13 | 256 | 1.6 | 4.8 | 0.00 | 0.00 | 0.00 | 76 | 1012.7 |
| 20260505220503 | 13 | 262 | 1.6 | 4.8 | 0.00 | 0.00 | 0.00 | 77 | 1012.7 |
| 20260505220341 | 13 | 265 | 1.6 | 4.8 | 0.00 | 0.00 | 0.00 | 76 | 1012.7 |
| 20260505215503 | 13 | 286 | 3.2 | 9.7 | 0.00 | 0.00 | 0.00 | 76 | 1012.8 |
| 20260505215003 | 13 | 310 | 3.2 | 9.7 | 0.00 | 0.00 | 0.00 | 76 | 1012.8 |
| 20260505214503 | 14 | 320 | 3.2 | 8.0 | 0.00 | 0.00 | 0.00 | 76 | 1012.8 |
| 20260505214005 | 14 | 324 | 1.6 | 8.0 | 0.00 | 0.00 | 0.00 | 76 | 1012.9 |
| 20260505213503 | 14 | 347 | 1.6 | 6.4 | 0.00 | 0.00 | 0.00 | 76 | 1012.9 |
| 20260505213003 | 14 | 321 | 1.6 | 4.8 | 0.00 | 0.00 | 0.00 | 76 | 1012.9 |
| 20260505212505 | 14 | 297 | 1.6 | 9.7 | 0.00 | 0.00 | 0.00 | 75 | 1012.9 |
| 20260505212003 | 14 | 284 | 0.0 | 9.7 | 0.00 | 0.00 | 0.00 | 75 | 1013.0 |
| 20260505211505 | 14 | 223 | 0.0 | 3.2 | 0.00 | 0.00 | 0.00 | 75 | 1013.2 |
| 20260505211003 | 15 | 222 | 0.0 | 3.2 | 0.00 | 0.00 | 0.00 | 74 | 1013.1 |
| 20260505210710 | 15 | 222 | 0.0 | 3.2 | 0.00 | 0.00 | 0.00 | 75 | 1013.1 |
| 20260505210006 | 15 | 249 | 3.2 | 4.8 | 0.00 | 0.00 | 0.00 | 74 | 1013.2 |
| 20260505205711 | 15 | 256 | 3.2 | 11.3 | 0.00 | 0.00 | 0.00 | 74 | 1013.1 |
| 20260505205003 | 15 | 235 | 1.6 | 11.3 | 0.00 | 0.00 | 0.00 | 74 | 1013.1 |
| 20260505204507 | 15 | 147 | 3.2 | 4.8 | 0.00 | 0.00 | 0.00 | 75 | 1012.9 |
| 20260505204210 | 15 | 190 | 4.8 | 6.4 | 0.00 | 0.00 | 0.00 | 74 | 1012.9 |
| 20260505203712 | 15 | 206 | 4.8 | 11.3 | 0.00 | 0.00 | 0.00 | 73 | 1013.0 |
| 20260505203003 | 15 | 202 | 4.8 | 11.3 | 0.00 | 0.00 | 0.00 | 74 | 1012.9 |
| 20260505202503 | 15 | 211 | 6.4 | 14.5 | 0.00 | 0.00 | 0.00 | 74 | 1012.9 |
| 20260505202005 | 15 | 223 | 6.4 | 14.5 | 0.00 | 0.00 | 0.00 | 74 | 1013.0 |
| 20260505201504 | 15 | 216 | 6.4 | 12.9 | 0.00 | 0.00 | 0.00 | 74 | 1012.9 |
| 20260505201005 | 15 | 206 | 6.4 | 12.9 | 0.00 | 0.00 | 0.00 | 73 | 1012.9 |
| 20260505200503 | 15 | 208 | 6.4 | 11.3 | 0.00 | 0.00 | 0.00 | 73 | 1012.9 |
| 20260505200004 | 15 | 201 | 4.8 | 14.5 | 0.00 | 0.00 | 0.00 | 73 | 1013.0 |
| 20260505195505 | 15 | 207 | 3.2 | 17.7 | 0.00 | 0.00 | 0.00 | 73 | 1013.0 |
| 20260505195003 | 15 | 238 | 3.2 | 17.7 | 0.00 | 0.00 | 0.00 | 73 | 1013.1 |
| 20260505194505 | 16 | 253 | 4.8 | 9.7 | 0.00 | 0.00 | 0.00 | 73 | 1013.0 |
| 20260505194003 | 16 | 244 | 4.8 | 14.5 | 0.00 | 0.00 | 0.00 | 72 | 1012.9 |
| 20260505193503 | 16 | 238 | 4.8 | 14.5 | 0.00 | 0.00 | 0.00 | 72 | 1012.9 |
| 20260505193005 | 16 | 239 | 3.2 | 12.9 | 0.00 | 0.00 | 0.00 | 72 | 1012.9 |
| 20260505192505 | 16 | 226 | 3.2 | 8.0 | 0.00 | 0.00 | 0.00 | 72 | 1012.9 |
| 20260505192005 | 16 | 207 | 1.6 | 8.0 | 0.00 | 0.00 | 0.00 | 72 | 1012.9 |
| 20260505191503 | 16 | 198 | 1.6 | 6.4 | 0.00 | 0.00 | 0.00 | 70 | 1012.8 |
| 20260505191003 | 16 | 211 | 1.6 | 6.4 | 0.00 | 0.00 | 0.00 | 70 | 1012.8 |
| 20260505190503 | 16 | 213 | 1.6 | 3.2 | 0.00 | 0.00 | 0.00 | 70 | 1012.8 |
| 20260505190006 | 16 | 197 | 3.2 | 6.4 | 0.00 | 0.00 | 0.00 | 69 | 1012.7 |
| 20260505185503 | 16 | 214 | 3.2 | 12.9 | 0.00 | 0.00 | 0.00 | 69 | 1012.8 |
| 20260505185005 | 16 | 224 | 1.6 | 12.9 | 0.00 | 0.00 | 0.00 | 69 | 1012.8 |
| 20260505184503 | 16 | 221 | 1.6 | 6.4 | 0.00 | 0.00 | 0.00 | 68 | 1012.9 |
| 20260505184005 | 16 | 209 | 1.6 | 3.2 | 0.00 | 0.00 | 0.00 | 69 | 1012.8 |
| 20260505183503 | 16 | 207 | 1.6 | 4.8 | 0.00 | 0.00 | 0.00 | 68 | 1012.8 |
| 20260505183005 | 16 | 208 | 3.2 | 4.8 | 0.00 | 0.00 | 0.00 | 67 | 1012.6 |
| 20260505182503 | 16 | 206 | 3.2 | 9.7 | 0.00 | 0.00 | 0.00 | 67 | 1012.6 |
| 20260505182003 | 16 | 211 | 1.6 | 9.7 | 0.00 | 0.00 | 0.00 | 67 | 1012.6 |
| 20260505181505 | 16 | 228 | 1.6 | 6.4 | 0.00 | 0.00 | 0.00 | 66 | 1012.6 |
| 20260505181003 | 16 | 232 | 1.6 | 6.4 | 0.00 | 0.00 | 0.00 | 66 | 1012.7 |
| 20260505180503 | 16 | 260 | 1.6 | 6.4 | 0.00 | 0.00 | 0.00 | 66 | 1012.6 |
| 20260505180211 | 16 | 256 | 1.6 | 6.4 | 0.00 | 0.00 | 0.00 | 66 | 1012.7 |
| 20260505175505 | 17 | 242 | 1.6 | 6.4 | 0.00 | 0.00 | 0.00 | 66 | 1012.7 |
| 20260505175003 | 17 | 250 | 1.6 | 6.4 | 0.00 | 0.00 | 0.00 | 66 | 1012.7 |
| 20260505174505 | 17 | 267 | 1.6 | 6.4 | 0.00 | 0.00 | 0.00 | 65 | 1012.6 |
| 20260505174003 | 17 | 310 | 1.6 | 4.8 | 0.00 | 0.00 | 0.00 | 65 | 1012.6 |
| 20260505173505 | 17 | 309 | 1.6 | 4.8 | 0.00 | 0.00 | 0.00 | 65 | 1012.6 |
| 20260505173003 | 17 | 300 | 3.2 | 6.4 | 0.00 | 0.00 | 0.00 | 64 | 1012.7 |
| 20260505172504 | 17 | 299 | 3.2 | 8.0 | 0.00 | 0.00 | 0.00 | 64 | 1012.8 |
| 20260505172212 | 17 | 287 | 3.2 | 8.0 | 0.00 | 0.00 | 0.00 | 64 | 1012.8 |
| 20260505171503 | 17 | 271 | 1.6 | 12.9 | 0.00 | 0.00 | 0.00 | 63 | 1012.9 |
| 20260505171005 | 17 | 275 | 1.6 | 12.9 | 0.00 | 0.00 | 0.00 | 63 | 1012.8 |
| 20260505170503 | 17 | 282 | 3.2 | 6.4 | 0.00 | 0.00 | 0.00 | 63 | 1012.9 |
| 20260505170004 | 17 | 296 | 3.2 | 11.3 | 0.00 | 0.00 | 0.00 | 63 | 1012.9 |
| 20260505165712 | 17 | 304 | 3.2 | 11.3 | 0.00 | 0.00 | 0.00 | 63 | 1013.0 |
| 20260505165003 | 17 | 296 | 1.6 | 6.4 | 0.00 | 0.00 | 0.00 | 62 | 1012.9 |
| 20260505164505 | 17 | 279 | 3.2 | 6.4 | 0.00 | 0.00 | 0.00 | 62 | 1012.8 |
| 20260505164003 | 17 | 277 | 3.2 | 8.0 | 0.00 | 0.00 | 0.00 | 61 | 1012.9 |
| 20260505163503 | 18 | 284 | 3.2 | 8.0 | 0.00 | 0.00 | 0.00 | 61 | 1012.8 |
| 20260505163005 | 18 | 311 | 3.2 | 6.4 | 0.00 | 0.00 | 0.00 | 61 | 1012.9 |
| 20260505162503 | 18 | 229 | 3.2 | 12.9 | 0.00 | 0.00 | 0.00 | 60 | 1012.9 |
| 20260505162003 | 18 | 239 | 3.2 | 12.9 | 0.00 | 0.00 | 0.00 | 60 | 1012.9 |
| 20260505161505 | 18 | 295 | 3.2 | 16.1 | 0.00 | 0.00 | 0.00 | 59 | 1013.0 |
| 20260505161003 | 18 | 242 | 3.2 | 16.1 | 0.00 | 0.00 | 0.00 | 59 | 1012.9 |
| 20260505160712 | 18 | 226 | 3.2 | 11.3 | 0.00 | 0.00 | 0.00 | 59 | 1012.9 |
| 20260505153210 | 18 | 219 | 6.4 | 12.9 | 0.00 | 0.00 | 0.00 | 58 | 1013.0 |
| 20260505152505 | 18 | 211 | 8.0 | 16.1 | 0.00 | 0.00 | 0.00 | 57 | 1013.0 |
| 20260505152003 | 18 | 218 | 8.0 | 17.7 | 0.00 | 0.00 | 0.00 | 57 | 1013.0 |
| 20260505151505 | 18 | 226 | 8.0 | 17.7 | 0.00 | 0.00 | 0.00 | 56 | 1013.0 |
| 20260505151003 | 18 | 223 | 9.7 | 20.9 | 0.00 | 0.00 | 0.00 | 57 | 1013.0 |
| 20260505150505 | 18 | 225 | 9.7 | 20.9 | 0.00 | 0.00 | 0.00 | 56 | 1013.1 |